Regional Weather Roundup
Issued by NWS

Home | Current Version | Previous Version | Text Only | Print | Product List | Glossary On
Versions: 1 2 3 4 5 6 7 8 9 10 11 12 13 14 15 16 17 18 19 20 21 22 23 24 25 26 27 28 29 30 31 32 33 34 35 36 37 38 39 40 41 42 43 44 45 46 47 48 49 50
000
ASUS43 KDMX 280507
RWRIA

WEATHER ROUNDUP FOR IOWA
NATIONAL WEATHER SERVICE DES MOINES IA
1100 PM CST TUE JAN 27 2015

NOTE: "FAIR" INDICATES FEW OR NO CLOUDS BELOW 12,000 FEET WITH NO
SIGNIFICANT WEATHER AND/OR OBSTRUCTIONS TO VISIBILITY.

* - THESE STATIONS ARE NOT NWS STATIONS...THUS NOT UNDER NWS
QUALITY CONTROL.  THEY ALSO DO NOT REPORT WEATHER SUCH
AS PRECIPITATION OR FOG.

IAZ001>003-012>014-020>022-031>034-043>046-280600-
   NORTHWEST IOWA

CITY           SKY/WX    TMP DP  RH WIND       PRES   REMARKS
CARROLL *      CLEAR     30  30 100 SE10      30.05F WCI  21
CHEROKEE *     CLEAR     34  32  93 SE10      30.01F WCI  26
DENISON *      CLEAR     37  32  81 SE5       30.00F WCI  34
LE MARS *      CLEAR     36  32  87 SE8G15    29.98F WCI  29
ORANGE CITY *  CLEAR     36  30  80 SE7       29.98S WCI  30
SHELDON *      CLEAR     34  34 100 SE16      29.98F WCI  23
SIOUX CITY     CLEAR     32  28  85 SE10      29.97F WCI  24
SPENCER        CLEAR     33  30  88 SE14      30.02F WCI  23
STORM LAKE *   CLEAR     32  30  93 SE14      30.03F WCI  22
$$

IAZ055>058-069>071-079>083-090>094-280600-
   SOUTHWEST IOWA

CITY           SKY/WX    TMP DP  RH WIND       PRES   REMARKS
ATLANTIC *     MOCLDY    37  32  81 VRB7      30.04F WCI  32
AUDUBON *      CLEAR     34  30  86 SE6       30.05F WCI  29
CLARINDA *     CLEAR     39  32  75 S6G13     30.07F WCI  35
COUNCIL BLFS * CLEAR     36  32  87 SE12      29.99F WCI  27
CRESTON *      CLEAR     32  30  93 SE9       30.07F WCI  24
HARLAN  *      CLEAR     37  36  93 SE9       30.06F WCI  31
LAMONI         CLEAR     34  29  82 SE7       30.09F WCI  28
RED OAK *      CLEAR     37  32  81 SE8       30.04F WCI  31
SHENANDOAH *   CLEAR     37  32  81 SE10      30.04S WCI  30
$$

IAZ047>049-059>061-072>074-084-280600-
   CENTRAL IOWA

CITY           SKY/WX    TMP DP  RH WIND       PRES   REMARKS
AMES           CLEAR     29  26  89 SE14      30.12F WCI  18
ANKENY *       CLEAR     30  28  93 SE10      30.13F WCI  21
CHARITON *     CLEAR     30  28  93 SE12      30.13F FOG     WCI  21
DES MOINES     CLEAR     31  27  85 SE10      30.13F WCI  22
GRINNELL*      CLOUDY    28  27  93 SE10      30.17R FOG     WCI  19
KNOXVILLE *    PTCLDY    28  27  93 SE12      30.14S WCI  18
MARSHALLTOWN   CLOUDY    29  26  89 SE13      30.15R WCI  19
PELLA *        CLOUDY    30  28  92 SE10      30.18F FOG     WCI  21
PERRY *          N/A     32  30  93 SE13      30.09S WCI  22
$$

IAZ004>006-015-016-023>025-035-036-280600-
   NORTH CENTRAL IOWA

CITY           SKY/WX    TMP DP  RH WIND       PRES   REMARKS
ALGONA *       CLOUDY    32  32 100 SE20      30.08F WCI  20
CLARION *      CLOUDY    30  30 100 SE17G23   30.11S WCI  18
ESTHERVILLE    CLOUDY    31  29  92 S17       30.05S WCI  19
FORT DODGE *   PTCLDY    30  25  80 SE10      30.09F WCI  21
MASON CITY     CLOUDY    29  27  92 S17       30.14R WCI  17
FOREST CITY *  CLOUDY    32  30  93 SE15      30.11R WCI  22
IOWA FALLS *   CLOUDY    30  28  93 SE13      30.14S FOG     WCI  20
$$

IAZ007>011-017>019-026>030-037>042-050>054-066-280600-
   NORTHEAST IOWA

CITY           SKY/WX    TMP DP  RH WIND       PRES   REMARKS
CEDAR RAPIDS   CLOUDY    27  24  89 SE10      30.19F WCI  17
CHARLES CITY * CLOUDY    28  28 100 S13       30.15F WCI  18
CLINTON *      CLOUDY    27  21  80 S3        30.27R
DECORAH *      CLOUDY    27  23  86 S8G15     30.16F WCI  18
DUBUQUE        CLOUDY    25  22  88 S10       30.21S FOG     WCI  15
MONTICELLO *   CLOUDY    27  25  93 S7        30.23S WCI  19
OELWEIN *      CLOUDY    28  25  86 S13       30.17F WCI  18
WATERLOO       CLOUDY    29  25  85 SE14      30.17S WCI  18
$$

IAZ064-065-067-068-078-280600-
   EAST CENTRAL IOWA

CITY           SKY/WX    TMP DP  RH WIND       PRES   REMARKS
DAVENPORT      CLOUDY    26  21  81 S7        30.25R WCI  18
IOWA CITY      CLOUDY    28  24  85 SE8       30.24S WCI  20
MT. PLEASANT * CLOUDY    28  25  86 SE9       30.22S FOG     WCI  20
MUSCATINE *    CLOUDY    28  23  80 SE8       30.25S WCI  20
QUAD CITIES    CLOUDY    27  22  81 SE7       30.25R WCI  19
$$

IAZ062-063-075>077-085>089-095>099-280600-
   SOUTHEAST IOWA

CITY           SKY/WX    TMP DP  RH WIND       PRES   REMARKS
BURLINGTON     CLOUDY    29  25  85 E7        30.22F WCI  22
FAIRFIELD *    CLOUDY    30  27  86 SE10      30.20S WCI  21
FORT MADISON * CLOUDY    28  27  93 SE6       30.22F WCI  22
KEOKUK *       CLOUDY    30  28  93 E7        30.22R WCI  23
OSKALOOSA *    CLOUDY    28  28 100 SE9       30.19S FOG     WCI  20
CENTERVILLE *  CLEAR     28  28 100 E10       30.17S WCI  19
OTTUMWA        CLOUDY    28  26  92 SE12      30.18S WCI  18
WASHINGTON *   CLOUDY    30  30 100 SE10      30.21R WCI  21
$$

ABBREVIATIONS USED IN REMARKS
   TC - TEMPERATURES IN CELSIUS
  WCI - WIND CHILL INDEX
   HX - HEAT INDEX
  VSB - VISIBILITY
$$




USA.gov is the U.S. government's official web portal to all federal, state and local government web resources and services.